THORAD AGENA D DEB, 4645

Orbit data source: Space-Track

THORAD AGENA D DEB, 4645 is space debris in SSO originally from a launch on Wed, 08 Apr 1970 UTC launched from the Air Force Western Test Range (AFWTR). Debris objects in space refer to the collection of defunct objects orbiting the Earth. Examples of debris include non-operational satellites, rocket bodies, and fragments generated from explosions, collisions, or faulty payload assembly.

Loading next visibility...
Identifier
4645, 1970-025AD
Orbit
SSO
Country
Flag of USUS
Related business
Manufacturer
Unknown
Mission
Spacecraft
Bus & Motor
Unknown
Mass
Unknown
Launch date (UTC)
1970-04-08 (56 years ago)
Launch vehicle
Unknown
Launch site
Air Force Western Test Range (AFWTR)
Object type
Payload
Rocket body
Debris
Shape & HBR
Unknown shape, 0.1 m
Radar Cross Section
Medium (>0.1 m² and <1 m²)

Expand to show TLE details & history
Last TLE update: 10 hours ago

TLE from 10 hours ago
0 THORAD AGENA D DEB
1  4645U 70025AD  26208.36404072  .00000104  00000-0  44409-3 0  9996
2  4645  99.8884 254.1402 0329375 156.8289 333.3688 12.86635199640591
Epoch: 2026-07-27T08:44Z
TLE epoch observation values (Epoch: 2026-07-27T08:44:13.118Z)
Latitude
50.59607°
Longitude
10.22345°
Altitude
1,098.069 km
Speed
7.414 km/s
True Right ascension
05h 45m 18s
True Declination
50° 26' 06"
Sunlit
Object was in daylight at epoch
Visualization orbit readout
Latitude
Unknown
Longitude
Unknown
Altitude
Unknown
Speed
Unknown
Apparent Right ascension
Unknown
Apparent Declination
Unknown
Sunlit
N/A
Visualization observer readout
Local Sidereal Time
07:36:29
Azimuth
Unknown
Elevation
Unknown
Doppler factor
Unknown
Orbital elements
Apogee altitude
1,565.603 km
Perigee altitude
1,058.995 km
Semi-major axis
7,690.436 km
Eccentricity
0.03294
Inclination
99.8884°
RAAN
254.1402°
Arg. of periapsis
156.8289°
True anomaly
331.61269°
Mean anomaly
333.3688°
Eccentric anomaly
332.49732°
Mean motion
3.21823 °/min
Orbital period
111.86 mins
BSTAR
0.00044409
Loading maneuver chart data...
Computing Atmospheric mass density...

Documentation

Showing up to 5 results
|